Volver al catálogo

BLOCK DM-SL R/B

ActivoHEO
NORAD 38750·ROCKET BODY· XX

Lanzado Aug 19, 2012 desde Sea Launch Platform

Loading…

Próximos Pases (próximas 24 horas)

TLE

ActualizadoSource: Space-Track

Época: Sep 14, 2026, 04:40 UTC

1 38750U 12045B   26257.19459170  .00000571  00000-0  37605-3 0  9990
2 38750   0.4097  20.1546 7082721  36.5650 351.9528  2.51409874123149

Sigue BLOCK DM-SL R/B en tiempo real con AllMySat

Download on the App Store